LGL700D LEIB-ELLX

Flight info

Callsign LGL700D
Flight time 1h 48m
Altitude 36000
Route EPAMA N856 EBROX DCT OLOXO DCT ROMAK DCT ENUPA DCT RLP G21 EPL/N0448F300 G21 GIVOR
Aircraft B738/M-SDE2E3FGHIRWXY/LB1

Departure

Time 2026-05-07 08:10
Airport Ibiza Airport (LEIB)

Arrival

Time 2026-05-07 09:58
Airport Luxembourg-Findel International Airport (ELLX)
Time Latitude Longitude Altitude Speed Heading
2026-05-07 07:32 38.87560 1.36920 7 ft 0 kts 332°
2026-05-07 08:02 38.87540 1.36933 9 ft 2 kts 333°
2026-05-07 08:02 38.87521 1.36948 9 ft 4 kts 312°
2026-05-07 08:02 38.87511 1.36974 7 ft 4 kts 255°
2026-05-07 08:03 38.87514 1.36985 9 ft 0 kts 242°
2026-05-07 08:05 38.87505 1.36964 7 ft 7 kts 242°
2026-05-07 08:05 38.87470 1.36878 7 ft 14 kts 242°
2026-05-07 08:06 38.87424 1.36796 7 ft 9 kts 193°
2026-05-07 08:06 38.87366 1.36821 9 ft 9 kts 153°
2026-05-07 08:06 38.87313 1.36855 8 ft 9 kts 157°
2026-05-07 08:06 38.87267 1.36821 8 ft 8 kts 243°
2026-05-07 08:07 38.87239 1.36750 8 ft 11 kts 243°
2026-05-07 08:07 38.87193 1.36636 9 ft 18 kts 243°
2026-05-07 08:07 38.87122 1.36462 7 ft 25 kts 242°
2026-05-07 08:07 38.87029 1.36238 8 ft 31 kts 242°
2026-05-07 08:08 38.86962 1.36076 8 ft 31 kts 242°
2026-05-07 08:08 38.86871 1.35857 7 ft 14 kts 241°
2026-05-07 08:08 38.86814 1.35823 7 ft 10 kts 162°
2026-05-07 08:08 38.86754 1.35866 5 ft 10 kts 149°
2026-05-07 08:09 38.86712 1.35926 5 ft 10 kts 83°
2026-05-07 08:09 38.86743 1.36005 5 ft 11 kts 62°
2026-05-07 08:09 38.86841 1.36241 5 ft 63 kts 62°
2026-05-07 08:09 38.87158 1.37006 9 ft 128 kts 62°
2026-05-07 08:10 38.87649 1.38172 296 ft 157 kts 61°
2026-05-07 08:10 38.88168 1.39449 834 ft 164 kts 69°
2026-05-07 08:10 38.88449 1.40890 1450 ft 172 kts 78°
2026-05-07 08:10 38.88719 1.42510 1762 ft 192 kts 76°
2026-05-07 08:11 38.89029 1.44230 2146 ft 201 kts 76°
2026-05-07 08:11 38.89352 1.45966 2651 ft 204 kts 77°
2026-05-07 08:11 38.89681 1.47777 3139 ft 211 kts 77°
2026-05-07 08:11 38.90015 1.49621 4003 ft 210 kts 77°
2026-05-07 08:12 38.90349 1.51459 4845 ft 212 kts 77°
2026-05-07 08:12 38.90712 1.53317 5594 ft 216 kts 69°
2026-05-07 08:12 38.91480 1.54984 6361 ft 223 kts 52°
2026-05-07 08:12 38.92679 1.56463 6594 ft 254 kts 43°
2026-05-07 08:13 38.94049 1.57975 7045 ft 271 kts 42°
2026-05-07 08:13 38.95481 1.59584 7782 ft 277 kts 43°
2026-05-07 08:13 38.96933 1.61237 8613 ft 281 kts 42°
2026-05-07 08:13 38.98412 1.62932 9362 ft 288 kts 41°
2026-05-07 08:14 38.99952 1.64616 10114 ft 294 kts 32°
2026-05-07 08:14 39.01869 1.65513 10834 ft 296 kts
2026-05-07 08:14 39.03922 1.65811 11579 ft 300 kts
2026-05-07 08:14 39.06035 1.66065 12228 ft 308 kts
2026-05-07 08:15 39.08177 1.66333 13013 ft 310 kts
2026-05-07 08:15 39.10335 1.66146 13669 ft 316 kts 341°
2026-05-07 08:15 39.12447 1.65097 13876 ft 337 kts 335°
2026-05-07 08:15 39.14662 1.63840 14029 ft 359 kts 334°
2026-05-07 08:16 39.17000 1.62485 14254 ft 377 kts 335°
2026-05-07 08:16 39.19428 1.61084 14718 ft 386 kts 334°
2026-05-07 08:16 39.21890 1.59677 15404 ft 388 kts 334°
2026-05-07 08:16 39.24368 1.58272 16097 ft 390 kts 334°
2026-05-07 08:17 39.26864 1.56864 16741 ft 394 kts 334°
2026-05-07 08:17 39.29365 1.55457 17366 ft 397 kts 334°
2026-05-07 08:17 39.31912 1.54025 17995 ft 401 kts 333°
2026-05-07 08:17 39.34482 1.52580 18583 ft 405 kts 333°
2026-05-07 08:18 39.37092 1.51112 19007 ft 411 kts 333°
2026-05-07 08:18 39.39728 1.49627 19526 ft 415 kts 332°
2026-05-07 08:18 39.42383 1.48130 20065 ft 418 kts 332°
2026-05-07 08:18 39.45058 1.46621 20578 ft 421 kts 332°
2026-05-07 08:19 39.47763 1.45094 21066 ft 425 kts 332°
2026-05-07 08:19 39.50486 1.43555 21544 ft 429 kts 331°
2026-05-07 08:19 39.53197 1.42023 22011 ft 433 kts 331°
2026-05-07 08:19 39.55966 1.40456 22486 ft 436 kts 331°
2026-05-07 08:20 39.58756 1.38875 22957 ft 439 kts 331°
2026-05-07 08:20 39.61696 1.37614 23363 ft 454 kts 346°
2026-05-07 08:20 39.64859 1.37163 23809 ft 459 kts 350°
2026-05-07 08:20 39.68057 1.36808 24215 ft 462 kts 350°
2026-05-07 08:21 39.71269 1.36456 24590 ft 465 kts 350°
2026-05-07 08:21 39.74505 1.36083 24954 ft 467 kts 349°
2026-05-07 08:21 39.77750 1.35686 25325 ft 470 kts 349°
2026-05-07 08:21 39.81010 1.35270 25714 ft 472 kts 349°
2026-05-07 08:22 39.84279 1.34842 26118 ft 473 kts 349°
2026-05-07 08:22 39.87515 1.34412 26471 ft 475 kts 349°
2026-05-07 08:22 39.90814 1.33971 26793 ft 478 kts 349°
2026-05-07 08:22 39.94139 1.33527 27123 ft 481 kts 349°
2026-05-07 08:23 39.97475 1.33082 27455 ft 483 kts 349°
2026-05-07 08:23 40.00824 1.32636 27782 ft 485 kts 349°
2026-05-07 08:23 40.04190 1.32187 28152 ft 486 kts 349°
2026-05-07 08:23 40.07565 1.31739 28527 ft 487 kts 349°
2026-05-07 08:24 40.08703 1.31587 28631 ft 488 kts 349°
2026-05-07 08:25 40.09070 1.31538 28654 ft 488 kts 349°
2026-05-07 08:25 40.12468 1.31085 28914 ft 491 kts 349°
2026-05-07 08:25 40.15887 1.30627 29196 ft 494 kts 349°
2026-05-07 08:25 40.19256 1.30178 29611 ft 493 kts 349°
2026-05-07 08:26 40.26055 1.29270 30519 ft 488 kts 349°
2026-05-07 08:26 40.29423 1.28819 30963 ft 485 kts 349°
2026-05-07 08:26 40.32774 1.28368 31319 ft 484 kts 349°
2026-05-07 08:27 40.36126 1.27917 31613 ft 484 kts 349°
2026-05-07 08:27 40.39481 1.27464 31918 ft 485 kts 349°
2026-05-07 08:27 40.42839 1.27010 32270 ft 483 kts 349°
2026-05-07 08:27 40.46172 1.26560 32638 ft 482 kts 349°
2026-05-07 08:28 40.49511 1.26109 33026 ft 480 kts 349°
2026-05-07 08:28 40.52829 1.25659 33375 ft 479 kts 349°
2026-05-07 08:28 40.56100 1.25215 33675 ft 479 kts 349°
2026-05-07 08:28 40.59423 1.24763 33959 ft 479 kts 349°
2026-05-07 08:29 40.62734 1.24313 34247 ft 478 kts 349°
2026-05-07 08:29 40.66039 1.23863 34510 ft 477 kts 349°
2026-05-07 08:29 40.69344 1.23421 34741 ft 478 kts 350°
2026-05-07 08:29 40.72694 1.23338 34944 ft 485 kts 360°
2026-05-07 08:30 40.76058 1.23802 35199 ft 486 kts
2026-05-07 08:30 40.79414 1.24369 35463 ft 486 kts
2026-05-07 08:30 40.82763 1.24963 35703 ft 486 kts
2026-05-07 08:30 40.86107 1.25551 35909 ft 486 kts
2026-05-07 08:31 40.89466 1.26125 36011 ft 488 kts
2026-05-07 08:31 40.92846 1.26685 36028 ft 490 kts
2026-05-07 08:31 40.99617 1.27778 36014 ft 487 kts
2026-05-07 08:32 41.06295 1.28847 36015 ft 482 kts
2026-05-07 08:32 41.12957 1.29911 36036 ft 481 kts
2026-05-07 08:33 41.19603 1.30976 36026 ft 481 kts
2026-05-07 08:33 41.26214 1.32040 36023 ft 481 kts
2026-05-07 08:34 41.32870 1.33113 36022 ft 482 kts
2026-05-07 08:34 41.39540 1.34192 36016 ft 483 kts
2026-05-07 08:35 41.46224 1.35275 36009 ft 484 kts
2026-05-07 08:35 41.52914 1.36361 36009 ft 484 kts
2026-05-07 08:36 41.59611 1.37451 36013 ft 485 kts
2026-05-07 08:36 41.66276 1.38538 36007 ft 485 kts
2026-05-07 08:37 41.72983 1.39634 36001 ft 485 kts
2026-05-07 08:37 41.79687 1.40732 36012 ft 485 kts
2026-05-07 08:38 41.86390 1.41833 35993 ft 484 kts
2026-05-07 08:38 41.93039 1.42926 35995 ft 483 kts
2026-05-07 08:39 41.99713 1.44026 36008 ft 482 kts
2026-05-07 08:39 42.06357 1.45123 35993 ft 481 kts
2026-05-07 08:40 42.13008 1.46223 35994 ft 480 kts
2026-05-07 08:40 42.19633 1.47322 36053 ft 479 kts
2026-05-07 08:41 42.26236 1.48419 36056 ft 478 kts
2026-05-07 08:41 42.32823 1.49517 36052 ft 477 kts
2026-05-07 08:42 42.39364 1.50608 36056 ft 476 kts
2026-05-07 08:42 42.45908 1.52110 36038 ft 481 kts 13°
2026-05-07 08:43 42.52312 1.54862 36025 ft 481 kts 15°
2026-05-07 08:43 42.58658 1.57729 36017 ft 481 kts 15°
2026-05-07 08:44 42.65025 1.60542 36003 ft 481 kts 14°
2026-05-07 08:44 42.71410 1.63310 36004 ft 481 kts 14°
2026-05-07 08:45 42.77781 1.66061 35994 ft 480 kts 14°
2026-05-07 08:45 42.84155 1.68820 36010 ft 480 kts 14°
2026-05-07 08:46 42.90535 1.71590 36010 ft 481 kts 14°
2026-05-07 08:46 42.96908 1.74364 36014 ft 481 kts 14°
2026-05-07 08:47 43.03247 1.77131 36033 ft 481 kts 14°
2026-05-07 08:47 43.09619 1.79917 36029 ft 481 kts 14°
2026-05-07 08:48 43.16008 1.82717 36028 ft 481 kts 14°
2026-05-07 08:48 43.22380 1.85516 36032 ft 481 kts 14°
2026-05-07 08:49 43.28755 1.88322 36020 ft 480 kts 14°
2026-05-07 08:49 43.35116 1.91129 36014 ft 480 kts 14°
2026-05-07 08:50 43.41467 1.93937 36050 ft 479 kts 14°
2026-05-07 08:50 43.47812 1.96748 36036 ft 479 kts 14°
2026-05-07 08:51 43.54152 1.99563 36042 ft 478 kts 14°
2026-05-07 08:51 43.60493 2.02385 36037 ft 478 kts 14°
2026-05-07 08:52 43.66779 2.05189 36044 ft 478 kts 14°
2026-05-07 08:52 43.73106 2.08017 36036 ft 478 kts 14°
2026-05-07 08:53 43.79427 2.10849 36033 ft 477 kts 14°
2026-05-07 08:53 43.85745 2.13686 36036 ft 477 kts 14°
2026-05-07 08:54 43.92068 2.16532 36029 ft 477 kts 14°
2026-05-07 08:54 43.98374 2.19376 36031 ft 477 kts 14°
2026-05-07 08:55 44.04646 2.22211 36034 ft 476 kts 14°
2026-05-07 08:55 44.10956 2.25070 36025 ft 476 kts 14°
2026-05-07 08:56 44.16197 2.27449 36020 ft 476 kts 14°
2026-05-07 08:56 44.22504 2.30319 36023 ft 476 kts 14°
2026-05-07 08:57 44.28805 2.33192 36019 ft 476 kts 14°
2026-05-07 08:57 44.35091 2.36065 36015 ft 475 kts 14°
2026-05-07 08:58 44.41333 2.38924 36031 ft 474 kts 14°
2026-05-07 08:58 44.47592 2.41797 36030 ft 473 kts 14°
2026-05-07 08:59 44.53850 2.44676 36016 ft 473 kts 14°
2026-05-07 08:59 44.60108 2.47562 36045 ft 473 kts 14°
2026-05-07 09:00 44.66380 2.50458 36043 ft 473 kts 14°
2026-05-07 09:00 44.72647 2.53345 36014 ft 473 kts 14°
2026-05-07 09:01 44.78899 2.56231 36025 ft 473 kts 14°
2026-05-07 09:01 44.85155 2.59128 36019 ft 473 kts 14°
2026-05-07 09:02 44.91377 2.62016 36026 ft 473 kts 14°
2026-05-07 09:02 44.97633 2.64927 36036 ft 473 kts 15°
2026-05-07 09:03 45.03899 2.67849 36016 ft 474 kts 15°
2026-05-07 09:03 45.10152 2.70773 36019 ft 473 kts 14°
2026-05-07 09:04 45.16404 2.73702 36036 ft 473 kts 15°
2026-05-07 09:04 45.22649 2.76635 36024 ft 472 kts 15°
2026-05-07 09:05 45.28891 2.79573 36025 ft 472 kts 15°
2026-05-07 09:05 45.35082 2.82494 36040 ft 471 kts 15°
2026-05-07 09:06 45.41321 2.85444 36025 ft 471 kts 15°
2026-05-07 09:06 45.47544 2.88394 36026 ft 471 kts 15°
2026-05-07 09:07 45.53761 2.91348 36028 ft 471 kts 15°
2026-05-07 09:07 45.59928 2.94285 36034 ft 470 kts 15°
2026-05-07 09:08 45.66136 2.97248 36041 ft 469 kts 15°
2026-05-07 09:08 45.72334 3.00213 36049 ft 469 kts 15°
2026-05-07 09:09 45.78517 3.03178 36053 ft 469 kts 15°
2026-05-07 09:09 45.84698 3.06149 36049 ft 468 kts 15°
2026-05-07 09:10 45.90876 3.09126 36047 ft 468 kts 15°
2026-05-07 09:10 45.97050 3.12107 36054 ft 468 kts 15°
2026-05-07 09:11 46.03222 3.15095 36047 ft 468 kts 15°
2026-05-07 09:11 46.09344 3.18067 36052 ft 468 kts 15°
2026-05-07 09:12 46.15512 3.21067 36059 ft 468 kts 15°
2026-05-07 09:12 46.21675 3.24071 36046 ft 467 kts 15°
2026-05-07 09:13 46.27836 3.27082 36048 ft 466 kts 15°
2026-05-07 09:13 46.33984 3.30094 36057 ft 466 kts 15°
2026-05-07 09:14 46.40122 3.33107 36041 ft 465 kts 15°
2026-05-07 09:14 46.46248 3.36123 36038 ft 464 kts 15°
2026-05-07 09:15 46.52330 3.39124 36046 ft 464 kts 16°
2026-05-07 09:15 46.58440 3.42145 36026 ft 464 kts 16°
2026-05-07 09:16 46.64413 3.45685 36030 ft 467 kts 28°
2026-05-07 09:16 46.69530 3.51521 36054 ft 470 kts 41°
2026-05-07 09:17 46.74235 3.58163 36023 ft 470 kts 42°
2026-05-07 09:17 46.78928 3.64810 36037 ft 470 kts 42°
2026-05-07 09:18 46.83647 3.71423 36034 ft 470 kts 41°
2026-05-07 09:18 46.88385 3.78035 36036 ft 471 kts 41°
2026-05-07 09:19 46.93121 3.84651 36050 ft 471 kts 41°
2026-05-07 09:19 46.97826 3.91244 36035 ft 471 kts 41°
2026-05-07 09:20 47.02557 3.97893 36028 ft 471 kts 42°
2026-05-07 09:20 47.07291 4.04565 36041 ft 471 kts 42°
2026-05-07 09:21 47.12012 4.11236 36053 ft 470 kts 42°
2026-05-07 09:21 47.16693 4.17866 36039 ft 470 kts 42°
2026-05-07 09:22 47.21394 4.24544 36041 ft 469 kts 42°
2026-05-07 09:22 47.26078 4.31213 36043 ft 468 kts 42°
2026-05-07 09:23 47.30757 4.37893 36056 ft 468 kts 42°
2026-05-07 09:23 47.35398 4.44535 36042 ft 467 kts 42°
2026-05-07 09:24 47.40056 4.51220 36042 ft 467 kts 42°
2026-05-07 09:24 47.44703 4.57907 36043 ft 466 kts 42°
2026-05-07 09:25 47.49350 4.64609 36044 ft 466 kts 43°
2026-05-07 09:25 47.53982 4.71309 36049 ft 466 kts 43°
2026-05-07 09:26 47.58614 4.78026 36045 ft 466 kts 43°
2026-05-07 09:26 47.63240 4.84752 36047 ft 466 kts 43°
2026-05-07 09:27 47.67838 4.91454 36045 ft 466 kts 43°
2026-05-07 09:28 47.74771 5.01594 36054 ft 466 kts 43°
2026-05-07 09:28 47.79381 5.08359 36049 ft 466 kts 43°
2026-05-07 09:29 47.83998 5.15153 36059 ft 466 kts 43°
2026-05-07 09:29 47.87936 5.20959 36054 ft 467 kts 43°
2026-05-07 09:31 47.90513 5.24789 36062 ft 467 kts 45°
2026-05-07 09:32 47.94626 5.32300 36045 ft 468 kts 52°
2026-05-07 09:32 47.98519 5.40112 36047 ft 468 kts 52°
2026-05-07 09:33 48.02430 5.47893 36049 ft 468 kts 51°
2026-05-07 09:33 48.06354 5.55599 36045 ft 468 kts 51°
2026-05-07 09:34 48.10313 5.63356 36060 ft 468 kts 51°
2026-05-07 09:34 48.14264 5.71122 35889 ft 472 kts 51°
2026-05-07 09:34 48.16265 5.75066 35280 ft 475 kts 51°
2026-05-07 09:35 48.18255 5.78997 34673 ft 473 kts 51°
2026-05-07 09:35 48.20240 5.82923 34031 ft 472 kts 51°
2026-05-07 09:35 48.22221 5.86848 33257 ft 472 kts 51°
2026-05-07 09:35 48.24199 5.90770 32527 ft 471 kts 52°
2026-05-07 09:36 48.26147 5.94639 31829 ft 469 kts 52°
2026-05-07 09:36 48.28138 5.98598 31085 ft 469 kts 52°
2026-05-07 09:36 48.30083 6.02448 30376 ft 468 kts 50°
2026-05-07 09:36 48.32274 6.06011 29819 ft 462 kts 41°
2026-05-07 09:37 48.34774 6.08991 29302 ft 453 kts 32°
2026-05-07 09:37 48.37407 6.11514 28783 ft 447 kts 31°
2026-05-07 09:37 48.40030 6.13985 28257 ft 441 kts 31°
2026-05-07 09:37 48.42619 6.16434 27736 ft 436 kts 31°
2026-05-07 09:38 48.45167 6.18871 27209 ft 432 kts 31°
2026-05-07 09:38 48.47684 6.21300 26690 ft 428 kts 31°
2026-05-07 09:38 48.50180 6.23725 26179 ft 424 kts 31°
2026-05-07 09:38 48.52621 6.26104 25680 ft 421 kts 31°
2026-05-07 09:39 48.55069 6.28495 25183 ft 418 kts 31°
2026-05-07 09:39 48.57499 6.30871 24687 ft 415 kts 31°
2026-05-07 09:39 48.59918 6.33237 24198 ft 412 kts 31°
2026-05-07 09:39 48.62323 6.35590 23711 ft 410 kts 31°
2026-05-07 09:40 48.64711 6.37930 23140 ft 408 kts 31°
2026-05-07 09:40 48.67224 6.39831 22560 ft 402 kts 14°
2026-05-07 09:40 48.69914 6.40871 22087 ft 397 kts 12°
2026-05-07 09:40 48.72587 6.41884 21565 ft 395 kts 12°
2026-05-07 09:41 48.75237 6.42909 21083 ft 392 kts 12°
2026-05-07 09:41 48.77864 6.43945 20604 ft 389 kts 12°
2026-05-07 09:41 48.80434 6.44971 20138 ft 386 kts 12°
2026-05-07 09:41 48.83025 6.46014 19665 ft 384 kts 12°
2026-05-07 09:42 48.85597 6.47055 19201 ft 381 kts 12°
2026-05-07 09:42 48.88155 6.48092 18736 ft 379 kts 12°
2026-05-07 09:42 48.90701 6.49126 18267 ft 378 kts 13°
2026-05-07 09:42 48.93234 6.50156 17739 ft 376 kts 13°
2026-05-07 09:43 48.95752 6.51181 17236 ft 373 kts 13°
2026-05-07 09:43 48.98252 6.52199 16774 ft 370 kts 13°
2026-05-07 09:43 49.00727 6.53209 16319 ft 367 kts 13°
2026-05-07 09:43 49.03190 6.54214 15854 ft 364 kts 13°
2026-05-07 09:44 49.05605 6.55201 15410 ft 361 kts 14°
2026-05-07 09:44 49.08023 6.56190 14965 ft 358 kts 14°
2026-05-07 09:44 49.10420 6.57171 14517 ft 356 kts 14°
2026-05-07 09:44 49.12805 6.58149 14083 ft 354 kts 14°
2026-05-07 09:45 49.15177 6.59122 13613 ft 351 kts 14°
2026-05-07 09:45 49.17533 6.60090 13131 ft 349 kts 14°
2026-05-07 09:45 49.19870 6.61050 12676 ft 346 kts 14°
2026-05-07 09:45 49.22210 6.61832 12213 ft 342 kts
2026-05-07 09:46 49.24538 6.61372 11818 ft 336 kts 342°
2026-05-07 09:46 49.26679 6.60071 11378 ft 333 kts 335°
2026-05-07 09:46 49.28781 6.58587 10946 ft 332 kts 334°
2026-05-07 09:46 49.30841 6.57107 10804 ft 321 kts 334°
2026-05-07 09:47 49.32840 6.55685 10648 ft 311 kts 334°
2026-05-07 09:47 49.34778 6.54323 10518 ft 302 kts 334°
2026-05-07 09:47 49.36650 6.52980 10387 ft 293 kts 333°
2026-05-07 09:47 49.38459 6.51649 10274 ft 284 kts 333°
2026-05-07 09:48 49.39629 6.50784 10186 ft 279 kts 333°
2026-05-07 09:48 49.41902 6.49102 10038 ft 268 kts 333°
2026-05-07 09:48 49.43580 6.47860 9767 ft 266 kts 333°
2026-05-07 09:48 49.44703 6.47029 9591 ft 265 kts 333°
2026-05-07 09:49 49.46357 6.45800 9321 ft 263 kts 333°
2026-05-07 09:49 49.47998 6.44577 9047 ft 261 kts 333°
2026-05-07 09:49 49.49604 6.43373 8822 ft 259 kts 332°
2026-05-07 09:49 49.50982 6.41632 8444 ft 259 kts 301°
2026-05-07 09:50 49.51428 6.39003 8174 ft 257 kts 265°
2026-05-07 09:50 49.50945 6.36372 7955 ft 255 kts 253°
2026-05-07 09:50 49.50478 6.33742 7672 ft 254 kts 257°
2026-05-07 09:50 49.50077 6.31099 7423 ft 253 kts 258°
2026-05-07 09:51 49.49699 6.28459 7150 ft 253 kts 258°
2026-05-07 09:51 49.49333 6.25805 6886 ft 253 kts 259°
2026-05-07 09:51 49.48974 6.23151 6619 ft 254 kts 259°
2026-05-07 09:51 49.48618 6.20486 6362 ft 254 kts 259°
2026-05-07 09:52 49.48269 6.17849 6087 ft 255 kts 259°
2026-05-07 09:52 49.47918 6.15180 5822 ft 255 kts 259°
2026-05-07 09:52 49.47566 6.12515 5603 ft 253 kts 259°
2026-05-07 09:52 49.47220 6.09897 5479 ft 247 kts 259°
2026-05-07 09:53 49.46881 6.07335 5355 ft 242 kts 258°
2026-05-07 09:53 49.46719 6.04807 5221 ft 235 kts 280°
2026-05-07 09:53 49.47393 6.02579 5049 ft 231 kts 312°
2026-05-07 09:53 49.48622 6.01025 4842 ft 229 kts 328°
2026-05-07 09:54 49.50004 5.99803 4608 ft 229 kts 330°
2026-05-07 09:54 49.51402 5.98615 4358 ft 230 kts 333°
2026-05-07 09:54 49.52937 5.98058 4091 ft 230 kts
2026-05-07 09:54 49.54314 5.99120 4002 ft 221 kts 48°
2026-05-07 09:55 49.55190 6.01050 3812 ft 221 kts 58°
2026-05-07 09:55 49.55976 6.03101 3524 ft 224 kts 60°
2026-05-07 09:55 49.56750 6.05208 3219 ft 228 kts 60°
2026-05-07 09:55 49.57538 6.07352 2911 ft 232 kts 60°
2026-05-07 09:56 49.58339 6.09520 2594 ft 232 kts 60°
2026-05-07 09:56 49.59126 6.11647 2261 ft 229 kts 59°
2026-05-07 09:56 49.59901 6.13743 1920 ft 216 kts 59°
2026-05-07 09:56 49.60621 6.15688 1639 ft 203 kts 59°
2026-05-07 09:57 49.61297 6.17511 1377 ft 189 kts 59°
2026-05-07 09:57 49.61922 6.19197 1196 ft 171 kts 58°
2026-05-07 09:57 49.62439 6.20601 1257 ft 137 kts 59°
2026-05-07 09:57 49.62854 6.21718 1227 ft 103 kts 60°
2026-05-07 09:58 49.63152 6.22520 1220 ft 69 kts 60°
2026-05-07 09:58 49.63348 6.23049 1218 ft 52 kts 60°
2026-05-07 09:58 49.63509 6.23477 1223 ft 23 kts 60°
2026-05-07 09:58 49.63574 6.23510 1222 ft 11 kts 339°
2026-05-07 09:59 49.63643 6.23450 1221 ft 11 kts 330°
2026-05-07 09:59 49.63663 6.23352 1221 ft 11 kts 242°
2026-05-07 09:59 49.63627 6.23257 1222 ft 10 kts 239°
2026-05-07 09:59 49.63592 6.23165 1222 ft 10 kts 240°
2026-05-07 10:00 49.63559 6.23074 1224 ft 10 kts 240°
2026-05-07 10:00 49.63520 6.22970 1225 ft 14 kts 240°
2026-05-07 10:00 49.63458 6.22805 1225 ft 21 kts 240°
2026-05-07 10:00 49.63374 6.22579 1225 ft 27 kts 240°
2026-05-07 10:01 49.63283 6.22306 1230 ft 24 kts 244°
2026-05-07 10:01 49.63240 6.22167 1236 ft 13 kts 244°
2026-05-07 10:01 49.63201 6.22044 1240 ft 13 kts 243°
2026-05-07 10:01 49.63183 6.21922 1236 ft 12 kts 300°
2026-05-07 10:02 49.63252 6.21850 1241 ft 12 kts 330°
2026-05-07 10:02 49.63311 6.21788 1242 ft 7 kts 297°
2026-05-07 10:02 49.63324 6.21714 1234 ft 8 kts 316°
2026-05-07 10:02 49.63343 6.21696 1243 ft 1 kts 330°
2026-05-07 10:03 49.63348 6.21692 1242 ft 1 kts 330°
2026-05-07 10:03 49.63351 6.21690 1236 ft 0 kts 330°